timestamp,surface_pressure_avg,surface_temp_avg,battery_voltage,lat,long
2019-12-12 00:09:01+00:00,341.3013,4.6,12.49,47.84626,-54.09684
2019-12-12 00:19:01+00:00,330.6213,4.57,12.49,47.84626,-54.09684
2019-12-12 00:29:01+00:00,339.2146,4.57,12.49,47.84626,-54.09684
2019-12-12 00:39:01+00:00,328.538,4.5,12.49,47.84626,-54.09684
2019-12-12 00:49:01+00:00,310.103,4.5,12.49,47.84626,-54.09684
2019-12-12 00:59:01+00:00,307.2813,4.4,12.49,47.84626,-54.09684
2019-12-12 01:09:01+00:00,314.4863,4.5,12.49,47.84626,-54.09684
2019-12-12 01:19:01+00:00,304.823,4.3,12.49,47.84626,-54.09684
2019-12-12 01:29:01+00:00,295.4479,4.5,12.49,47.84626,-54.09684
2019-12-12 01:39:01+00:00,299.7247,4.6,12.49,47.84626,-54.09684
2019-12-12 01:49:01+00:00,293.3098,4.6,12.49,47.84626,-54.09684
2019-12-12 01:59:01+00:00,286.7281,4.5,12.49,47.84626,-54.09684
2019-12-12 02:09:01+00:00,283.3664,4.5,12.49,47.84626,-54.09684
2019-12-12 02:19:01+00:00,269.9481,4.36,12.49,47.84626,-54.09684
2019-12-12 02:29:01+00:00,258.3631,4.3,12.49,47.84626,-54.09684
2019-12-12 02:39:01+00:00,263.5614,4.5,12.49,47.84626,-54.09684
2019-12-12 02:49:01+00:00,264.993,4.6,12.49,47.84626,-54.09684
2019-12-12 02:59:01+00:00,252.8481,4.5,12.49,47.84626,-54.09684
2019-12-12 03:09:01+00:00,237.6947,4.4,12.49,47.84626,-54.09684
2019-12-12 03:19:01+00:00,235.8797,4.43,12.49,47.84626,-54.09684
2019-12-12 03:29:01+00:00,230.1414,4.4,12.49,47.84626,-54.09684
2019-12-12 03:39:01+00:00,215.9181,4.3,12.49,47.84626,-54.09684
2019-12-12 03:49:01+00:00,214.0748,4.28,12.49,47.84626,-54.09684
2019-12-12 03:59:01+00:00,219.2581,4.34,12.49,47.84626,-54.09684
2019-12-12 04:09:01+00:00,212.6815,4.5,12.49,47.84626,-54.09684
2019-12-12 04:19:01+00:00,199.9148,4.3,12.41,47.84626,-54.09684
2019-12-12 04:29:01+00:00,205.3732,4.3,12.41,47.84626,-54.09684
2019-12-12 04:39:01+00:00,212.0548,4.3,12.41,47.84626,-54.09684
2019-12-12 04:49:01+00:00,192.7814,4.21,12.41,47.84626,-54.09684
2019-12-12 04:59:01+00:00,184.3681,4.2,12.41,47.84626,-54.09684
2019-12-12 05:09:01+00:00,199.0898,4.2,12.41,47.84626,-54.09684
2019-12-12 05:19:01+00:00,192.7447,4.26,12.41,47.84626,-54.09684
2019-12-12 05:29:01+00:00,191.0664,4.28,12.41,47.84626,-54.09684
2019-12-12 05:39:01+00:00,202.9748,4.46,12.41,47.84626,-54.09684
2019-12-12 05:49:01+00:00,201.2164,4.6,12.41,47.84626,-54.09684
2019-12-12 05:59:01+00:00,195.5381,4.5,12.41,47.84626,-54.09684
2019-12-12 06:09:01+00:00,205.4065,4.4,12.41,47.84626,-54.09684
2019-12-12 06:19:01+00:00,220.1664,4.4,12.41,47.84626,-54.09684
2019-12-12 06:29:01+00:00,216.0598,4.5,12.41,47.84626,-54.09684
2019-12-12 06:39:01+00:00,215.3481,4.58,12.41,47.84626,-54.09684
2019-12-12 06:49:01+00:00,227.9381,4.67,12.41,47.84626,-54.09684
2019-12-12 06:59:01+00:00,233.1548,4.7,12.41,47.84626,-54.09684
2019-12-12 07:09:01+00:00,226.6864,4.6,12.41,47.84626,-54.09684
2019-12-12 07:19:01+00:00,225.6464,4.6,12.41,47.84626,-54.09684
2019-12-12 07:29:01+00:00,241.0531,4.7,12.41,47.84626,-54.09684
2019-12-12 07:39:01+00:00,255.8714,4.7,12.41,47.84626,-54.09684
2019-12-12 07:49:01+00:00,262.0698,4.7,12.41,47.84626,-54.09684
2019-12-12 07:59:01+00:00,267.0897,4.7,12.41,47.84626,-54.09684
2019-12-12 08:09:01+00:00,280.5931,4.7,12.41,47.84626,-54.09684
2019-12-12 08:19:01+00:00,287.218,4.68,12.41,47.84626,-54.09684
2019-12-12 08:29:01+00:00,290.3947,4.62,12.41,47.84626,-54.09684
2019-12-12 08:39:01+00:00,298.6014,4.6,12.41,47.84626,-54.09684
2019-12-12 08:49:01+00:00,308.4097,4.6,12.41,47.84626,-54.09684
2019-12-12 08:59:01+00:00,322.6446,4.63,12.41,47.84626,-54.09684
2019-12-12 09:09:01+00:00,322.788,4.7,12.41,47.84626,-54.09684
2019-12-12 09:19:01+00:00,321.6597,4.8,12.41,47.84626,-54.09684
2019-12-12 09:29:01+00:00,329.7297,4.83,12.41,47.84626,-54.09684
2019-12-12 09:39:01+00:00,345.3547,4.9,12.41,47.84626,-54.09684
2019-12-12 09:49:01+00:00,357.7679,4.92,12.41,47.84626,-54.09684
2019-12-12 09:59:01+00:00,345.9913,4.9,12.41,47.84626,-54.09684
2019-12-12 10:09:01+00:00,351.1346,4.9,12.41,47.84626,-54.09684
2019-12-12 10:19:01+00:00,370.5979,4.9,12.41,47.84626,-54.09684
2019-12-12 10:29:01+00:00,376.3212,4.9,12.41,47.84626,-54.09684
2019-12-12 10:39:01+00:00,377.5029,4.9,12.41,47.84626,-54.09684
2019-12-12 10:49:01+00:00,383.5245,4.9,12.41,47.84626,-54.09684
2019-12-12 10:59:01+00:00,383.7262,4.9,12.41,47.84626,-54.09684
2019-12-12 11:09:01+00:00,382.0595,4.91,12.41,47.84626,-54.09684
2019-12-12 11:19:01+00:00,376.6812,4.9,12.41,47.84626,-54.09684
2019-12-12 11:29:01+00:00,381.3579,4.93,12.41,47.84626,-54.09684
2019-12-12 11:39:01+00:00,386.9263,4.99,12.41,47.84626,-54.09684
2019-12-12 11:49:01+00:00,381.8862,5.0,12.41,47.84626,-54.09684
2019-12-12 11:59:01+00:00,380.9695,4.99,12.41,47.84626,-54.09684
2019-12-12 12:09:01+00:00,378.7529,4.99,12.41,47.84626,-54.09684
2019-12-12 12:19:01+00:00,387.3479,5.0,12.41,47.84626,-54.09684
2019-12-12 12:29:01+00:00,382.9979,5.0,12.41,47.84626,-54.09684
2019-12-12 12:39:01+00:00,378.3663,5.0,12.41,47.84626,-54.09684
2019-12-12 12:49:01+00:00,391.9929,5.0,12.41,47.84626,-54.09684
2019-12-12 12:59:01+00:00,380.63800000000003,5.0,12.41,47.84626,-54.09684
2019-12-12 13:09:01+00:00,366.2362,5.0,12.41,47.84626,-54.09684
2019-12-12 13:19:01+00:00,359.8513,5.0,12.57,47.84626,-54.09684
2019-12-12 13:29:01+00:00,365.6363,5.0,12.57,47.84626,-54.09684
2019-12-12 13:39:01+00:00,363.9613,5.0,12.57,47.84626,-54.09684
2019-12-12 13:49:01+00:00,352.2113,5.0,12.57,47.84626,-54.09684
2019-12-12 13:59:01+00:00,349.1146,5.0,12.57,47.84626,-54.09684
2019-12-12 14:09:01+00:00,348.6797,4.95,12.57,47.84626,-54.09684
2019-12-12 14:19:01+00:00,337.1747,4.93,12.97,47.84626,-54.09684
2019-12-12 14:29:01+00:00,328.6646,4.9,12.97,47.84626,-54.09684
2019-12-12 14:39:01+00:00,323.0296,4.94,12.97,47.84626,-54.09684
2019-12-12 14:49:01+00:00,310.8514,4.97,12.97,47.84626,-54.09684
2019-12-12 14:59:01+00:00,290.5714,4.97,12.97,47.84626,-54.09684
2019-12-12 15:09:01+00:00,288.8597,4.97,12.97,47.84626,-54.09684
2019-12-12 15:19:01+00:00,286.6198,4.99,13.37,47.84626,-54.09684
2019-12-12 15:29:01+00:00,267.3981,4.9,13.37,47.84626,-54.09684
2019-12-12 15:39:01+00:00,254.238,4.88,13.37,47.84626,-54.09684
2019-12-12 15:49:01+00:00,248.2181,4.9,13.37,47.84626,-54.09684
2019-12-12 15:59:01+00:00,240.5098,4.99,13.37,47.84626,-54.09684
2019-12-12 16:09:01+00:00,231.6081,5.0,13.37,47.84626,-54.09684
2019-12-12 16:19:01+00:00,223.6281,5.0,13.21,47.84626,-54.09684
2019-12-12 16:29:01+00:00,211.8148,4.9,13.21,47.84626,-54.09684
2019-12-12 16:39:01+00:00,207.9648,4.89,13.21,47.84626,-54.09684
2019-12-12 16:49:01+00:00,207.2365,4.8,13.21,47.84626,-54.09684
2019-12-12 16:59:01+00:00,194.1248,4.7,13.21,47.84626,-54.09684
2019-12-12 17:09:01+00:00,184.1682,4.7,13.21,47.84626,-54.09684
2019-12-12 17:19:01+00:00,186.0498,4.68,13.84,47.84626,-54.09684
2019-12-12 17:29:01+00:00,185.9832,4.7,13.84,47.84626,-54.09684
2019-12-12 17:39:01+00:00,182.4015,4.7,13.84,47.84626,-54.09684
2019-12-12 17:49:01+00:00,185.6981,4.7,13.84,47.84626,-54.09684
2019-12-12 17:59:01+00:00,189.1015,4.7,13.84,47.84626,-54.09684
2019-12-12 18:09:01+00:00,185.9298,4.7,13.84,47.84626,-54.09684
2019-12-12 18:19:01+00:00,196.7231,4.77,13.76,47.84626,-54.09684
2019-12-12 18:29:01+00:00,205.7614,4.8,13.76,47.84626,-54.09684
2019-12-12 18:39:01+00:00,203.9048,4.86,13.76,47.84626,-54.09684
2019-12-12 18:49:01+00:00,204.6314,4.9,13.76,47.84626,-54.09684
2019-12-12 18:59:01+00:00,205.8631,4.9,13.76,47.84626,-54.09684
2019-12-12 19:09:01+00:00,209.5431,4.92,13.76,47.84626,-54.09684
2019-12-12 19:19:01+00:00,223.4048,4.98,13.13,47.84626,-54.09684
2019-12-12 19:29:01+00:00,228.4231,4.99,13.13,47.84626,-54.09684
2019-12-12 19:39:01+00:00,221.7381,5.0,13.13,47.84626,-54.09684
2019-12-12 19:49:01+00:00,223.2964,5.0,13.13,47.84626,-54.09684
2019-12-12 19:59:01+00:00,238.8398,4.99,13.13,47.84626,-54.09684
2019-12-12 20:09:01+00:00,240.4764,5.0,13.13,47.84626,-54.09684
2019-12-12 20:19:01+00:00,231.2097,4.98,12.97,47.84626,-54.09684
2019-12-12 20:29:01+00:00,239.4297,4.96,12.97,47.84626,-54.09684
2019-12-12 20:39:01+00:00,254.5731,4.99,12.97,47.84626,-54.09684
2019-12-12 20:49:01+00:00,255.3197,5.0,12.97,47.84626,-54.09684
2019-12-12 20:59:01+00:00,260.943,5.0,12.97,47.84626,-54.09684
2019-12-12 21:09:01+00:00,280.7847,5.0,12.97,47.84626,-54.09684
2019-12-12 21:19:01+00:00,290.9213,5.0,12.89,47.84626,-54.09684
2019-12-12 21:29:01+00:00,285.3931,5.0,12.89,47.84626,-54.09684
2019-12-12 21:39:01+00:00,296.613,5.0,12.89,47.84626,-54.09684
2019-12-12 21:49:01+00:00,312.678,4.98,12.89,47.84626,-54.09684
2019-12-12 21:59:01+00:00,299.2014,4.5,12.89,47.84626,-54.09684
2019-12-12 22:09:01+00:00,284.958,4.44,12.89,47.84626,-54.09684
2019-12-12 22:19:01+00:00,307.1847,4.65,12.81,47.84626,-54.09684
2019-12-12 22:29:01+00:00,317.4662,4.87,12.81,47.84626,-54.09684
2019-12-12 22:39:01+00:00,299.233,4.93,12.81,47.84626,-54.09684
2019-12-12 22:49:01+00:00,297.4664,5.0,12.81,47.84626,-54.09684
2019-12-12 22:59:01+00:00,315.7764,5.0,12.81,47.84626,-54.09684
2019-12-12 23:09:01+00:00,317.3547,5.0,12.81,47.84626,-54.09684
2019-12-12 23:19:01+00:00,301.873,5.0,12.81,47.84626,-54.09684
2019-12-12 23:29:01+00:00,304.668,5.0,12.81,47.84626,-54.09684
2019-12-12 23:39:01+00:00,315.3497,5.0,12.81,47.84626,-54.09684
2019-12-12 23:49:01+00:00,308.1847,5.0,12.81,47.84626,-54.09684
2019-12-12 23:59:01+00:00,297.0863,5.0,12.81,47.84626,-54.09684
